TimeMST,TemperatureF,Dew PointF,Humidity,Sea Level PressureIn,VisibilityMPH,Wind Direction,Wind SpeedMPH,Gust SpeedMPH,PrecipitationIn,Events,Conditions,WindDirDegrees,DateUTC
12:55 AM,68.0,50.0,52,29.69,10.0,SSE,13.8,-,N/A,,Partly Cloudy,160,2013-04-14 07:55:00
1:55 AM,66.9,50.0,54,29.68,10.0,SSE,12.7,-,N/A,,Partly Cloudy,160,2013-04-14 08:55:00
2:55 AM,64.9,48.9,56,29.66,10.0,South,4.6,-,N/A,,Clear,180,2013-04-14 09:55:00
3:55 AM,66.0,48.0,52,29.65,10.0,SSE,10.4,-,N/A,,Clear,150,2013-04-14 10:55:00
4:55 AM,66.0,48.0,52,29.65,10.0,SSE,13.8,-,N/A,,Clear,150,2013-04-14 11:55:00
5:55 AM,64.9,51.1,61,29.65,10.0,SSE,15.0,-,N/A,,Partly Cloudy,150,2013-04-14 12:55:00
6:55 AM,66.0,52.0,60,29.67,10.0,SSE,12.7,-,N/A,,Clear,150,2013-04-14 13:55:00
7:55 AM,70.0,52.0,53,29.69,10.0,SE,11.5,-,N/A,,Clear,130,2013-04-14 14:55:00
8:55 AM,73.9,50.0,43,29.70,10.0,SE,15.0,-,N/A,,Clear,140,2013-04-14 15:55:00
9:55 AM,77.0,46.9,34,29.70,6.0,South,11.5,-,N/A,,Haze,190,2013-04-14 16:55:00
10:55 AM,81.0,42.1,25,29.69,6.0,SSW,9.2,-,N/A,,Haze,210,2013-04-14 17:55:00
11:55 AM,82.9,42.1,24,29.68,10.0,South,10.4,16.1,N/A,,Clear,190,2013-04-14 18:55:00
12:55 PM,86.0,39.9,20,29.65,10.0,SSE,9.2,16.1,N/A,,Clear,160,2013-04-14 19:55:00
1:55 PM,87.1,39.9,19,29.63,10.0,SSW,9.2,-,N/A,,Partly Cloudy,200,2013-04-14 20:55:00
2:55 PM,89.1,39.0,17,29.61,10.0,South,11.5,18.4,N/A,,Partly Cloudy,170,2013-04-14 21:55:00
3:55 PM,88.0,37.0,16,29.58,10.0,SSW,10.4,-,N/A,,Clear,200,2013-04-14 22:55:00
4:55 PM,88.0,41.0,19,29.58,6.0,South,17.3,-,N/A,,Haze,180,2013-04-14 23:55:00
5:55 PM,84.9,39.0,20,29.58,6.0,South,23.0,-,N/A,,Haze,170,2013-04-15 00:55:00
6:55 PM,79.0,44.1,29,29.59,5.0,SSE,16.1,-,N/A,,Haze,160,2013-04-15 01:55:00
7:55 PM,75.0,46.0,36,29.60,6.0,SSE,19.6,-,N/A,,Haze,150,2013-04-15 02:55:00
8:55 PM,71.1,48.0,44,29.61,6.0,SSE,20.7,-,N/A,,Haze,160,2013-04-15 03:55:00
9:55 PM,70.0,48.0,46,29.62,6.0,South,13.8,25.3,N/A,,Haze,180,2013-04-15 04:55:00
10:55 PM,69.1,50.0,51,29.65,6.0,SW,6.9,-,N/A,,Haze,220,2013-04-15 05:55:00
11:55 PM,68.0,50.0,52,29.66,6.0,Calm,Calm,-,N/A,,Haze,0,2013-04-15 06:55:00